FENGYUN 1C DEB, 35175

Orbit data source: Space-Track

FENGYUN 1C DEB, 35175 is space debris in SSO originally from a launch on Mon, 10 May 1999 UTC launched from the Taiyaun Space Center, China (TSC). Fengyun 1C debris stems from the Chinese weather satellite Fengyun-1C, which was intentionally destroyed by a Chinese anti-satellite missile in 2007. This event dramatically increased the amount of space debris, with thousands of trackable fragments posing hazards to satellites and human spaceflight. The Fengyun 1C debris cloud has become a focal point in discussions about space sustainability and the need for international regulations to prevent the creation of new debris.

Loading next visibility...
Identifier
35175, 1999-025DNF
Orbit
SSO
Country
Flag of CNCN / PRC
Related business
Manufacturer
Unknown
Mission
Spacecraft
Bus & Motor
Unknown
Mass
Unknown
Launch date (UTC)
1999-05-10 (27 years ago)
Launch vehicle
Unknown
Launch site
Taiyaun Space Center, China (TSC)
Object type
Payload
Rocket body
Debris
Shape & HBR
Unknown shape, 0.1 m
Radar Cross Section
Small (<0.1 m²)

Expand to show TLE details & history
Last TLE update: 4 days ago

TLE from 4 days ago
0 FENGYUN 1C DEB
1 35175U 99025DNF 26233.23648388  .00000444  00000-0  21823-3 0  9995
2 35175  98.5743 239.4094 0056484 270.8523  88.6183 14.21661792648083
Epoch: 2026-08-21T05:40Z
TLE epoch observation values (Epoch: 2026-08-21T05:40:32.207Z)
Latitude
-0.00003°
Longitude
-175.28893°
Altitude
821.908 km
Speed
7.443 km/s
True Right ascension
15h 57m 38s
True Declination
0° 00' 00"
Sunlit
Object was in daylight at epoch
Visualization orbit readout
Latitude
Unknown
Longitude
Unknown
Altitude
Unknown
Speed
Unknown
Apparent Right ascension
Unknown
Apparent Declination
Unknown
Sunlit
N/A
Visualization observer readout
Local Sidereal Time
17:07:31
Azimuth
Unknown
Elevation
Unknown
Doppler factor
Unknown
Orbital elements
Apogee altitude
857.528 km
Perigee altitude
776.248 km
Semi-major axis
7,195.025 km
Eccentricity
0.00565
Inclination
98.5743°
RAAN
239.4094°
Arg. of periapsis
270.8523°
True anomaly
89.26547°
Mean anomaly
88.6183°
Eccentric anomaly
88.94187°
Mean motion
3.55627 °/min
Orbital period
101.23 mins
BSTAR
0.00021823
Loading maneuver chart data...
Computing Atmospheric mass density...
Loading historical data...
Loading historical data...
Loading historical data...
Loading historical data...
Loading historical data...
Loading historical data...
Loading historical data...

Documentation

Showing up to 5 results
|